Time,TemperatureF,DewpointF,PressureIn,WindDirection,WindDirectionDegrees,WindSpeedMPH,WindSpeedGustMPH,Humidity,HourlyPrecipIn,Conditions,Clouds,dailyrainin,SoftwareType,DateUTC
2013-05-03 00:00:00,46.0,40.2,30.42,NE,47,0.0,0.0,80,0.00,,,0.00,WeatherCatV1.15B25,2013-05-03 04:00:00,
2013-05-03 00:01:00,46.0,40.2,30.42,NE,47,0.0,0.0,80,0.00,,,0.00,WeatherCatV1.15B25,2013-05-03 04:01:00,
2013-05-03 00:06:00,46.0,40.2,30.42,NE,47,0.0,0.0,80,0.00,,,0.00,WeatherCatV1.15B25,2013-05-03 04:06:00,
2013-05-03 00:11:00,46.0,40.2,30.42,NNE,19,0.0,0.0,80,0.00,,,0.00,WeatherCatV1.15B25,2013-05-03 04:11:00,
2013-05-03 00:16:00,46.1,40.3,30.42,NNE,19,0.0,0.0,80,0.00,,,0.00,WeatherCatV1.15B25,2013-05-03 04:16:00,
2013-05-03 00:21:00,46.1,40.0,30.42,NNE,19,0.0,0.0,79,0.00,,,0.00,WeatherCatV1.15B25,2013-05-03 04:21:00,
2013-05-03 00:26:00,46.1,40.3,30.42,NNE,19,0.0,0.0,80,0.00,,,0.00,WeatherCatV1.15B25,2013-05-03 04:26:00,
2013-05-03 00:31:00,46.3,40.1,30.42,NE,47,0.0,4.0,79,0.00,,,0.00,WeatherCatV1.15B25,2013-05-03 04:31:00,
2013-05-03 00:36:00,46.5,40.3,30.42,NNE,21,0.0,0.0,79,0.00,,,0.00,WeatherCatV1.15B25,2013-05-03 04:36:00,
2013-05-03 00:41:00,46.5,40.3,30.42,NNE,21,0.0,0.0,79,0.00,,,0.00,WeatherCatV1.15B25,2013-05-03 04:41:00,
2013-05-03 00:46:00,46.5,40.3,30.42,NE,43,0.0,1.0,79,0.00,,,0.00,WeatherCatV1.15B25,2013-05-03 04:46:00,
2013-05-03 00:51:00,46.4,40.2,30.42,NE,43,0.0,0.0,79,0.00,,,0.00,WeatherCatV1.15B25,2013-05-03 04:51:00,
2013-05-03 00:56:00,46.4,40.2,30.42,NE,43,0.0,0.0,79,0.00,,,0.00,WeatherCatV1.15B25,2013-05-03 04:56:00,
2013-05-03 01:01:00,46.3,40.1,30.41,NE,41,1.0,1.0,79,0.00,,,0.00,WeatherCatV1.15B25,2013-05-03 05:01:00,
2013-05-03 01:06:00,46.3,40.1,30.41,NNE,18,0.0,0.0,79,0.00,,,0.00,WeatherCatV1.15B25,2013-05-03 05:06:00,
2013-05-03 01:11:00,46.2,40.4,30.41,NNE,18,0.0,1.0,80,0.00,,,0.00,WeatherCatV1.15B25,2013-05-03 05:11:00,
2013-05-03 01:16:00,46.1,40.3,30.41,NNE,16,0.0,0.0,80,0.00,,,0.00,WeatherCatV1.15B25,2013-05-03 05:16:00,
2013-05-03 01:21:00,46.1,40.3,30.41,NNE,13,0.0,0.0,80,0.00,,,0.00,WeatherCatV1.15B25,2013-05-03 05:21:00,
2013-05-03 01:26:00,46.1,40.3,30.41,ENE,59,3.0,5.0,80,0.00,,,0.00,WeatherCatV1.15B25,2013-05-03 05:26:00,
2013-05-03 01:31:00,46.2,40.1,30.41,NE,47,0.0,0.0,79,0.00,,,0.00,WeatherCatV1.15B25,2013-05-03 05:31:00,
2013-05-03 01:36:00,46.2,40.1,30.40,NE,47,0.0,0.0,79,0.00,,,0.00,WeatherCatV1.15B25,2013-05-03 05:36:00,
2013-05-03 01:41:00,46.1,40.0,30.40,NE,46,0.0,0.0,79,0.00,,,0.00,WeatherCatV1.15B25,2013-05-03 05:41:00,
2013-05-03 01:46:00,46.0,39.9,30.40,NE,40,0.0,1.0,79,0.00,,,0.00,WeatherCatV1.15B25,2013-05-03 05:46:00,
2013-05-03 01:51:00,46.0,39.9,30.40,WNW,294,0.0,1.0,79,0.00,,,0.00,WeatherCatV1.15B25,2013-05-03 05:51:00,
2013-05-03 01:56:00,46.0,39.9,30.40,North,11,0.0,0.0,79,0.00,,,0.00,WeatherCatV1.15B25,2013-05-03 05:56:00,
2013-05-03 02:01:00,46.0,39.9,30.40,North,7,3.0,3.0,79,0.00,,,0.00,WeatherCatV1.15B25,2013-05-03 06:01:00,
2013-05-03 02:06:00,45.9,39.8,30.39,NNE,32,0.0,1.0,79,0.00,,,0.00,WeatherCatV1.15B25,2013-05-03 06:06:00,
2013-05-03 02:11:00,45.9,39.8,30.39,NNE,32,0.0,1.0,79,0.00,,,0.00,WeatherCatV1.15B25,2013-05-03 06:11:00,
2013-05-03 02:16:00,45.7,39.9,30.39,NNE,14,0.0,2.0,80,0.00,,,0.00,WeatherCatV1.15B25,2013-05-03 06:16:00,
2013-05-03 02:21:00,45.7,39.9,30.39,North,352,0.0,2.0,80,0.00,,,0.00,WeatherCatV1.15B25,2013-05-03 06:21:00,
2013-05-03 02:26:00,45.6,39.8,30.39,North,352,0.0,0.0,80,0.00,,,0.00,WeatherCatV1.15B25,2013-05-03 06:26:00,
2013-05-03 02:31:00,45.6,39.8,30.39,NW,318,2.0,2.0,80,0.00,,,0.00,WeatherCatV1.15B25,2013-05-03 06:31:00,
2013-05-03 02:36:00,45.5,39.7,30.39,NNE,32,0.0,1.0,80,0.00,,,0.00,WeatherCatV1.15B25,2013-05-03 06:36:00,
2013-05-03 02:41:00,45.4,39.6,30.39,NNE,32,0.0,4.0,80,0.00,,,0.00,WeatherCatV1.15B25,2013-05-03 06:41:00,
2013-05-03 02:46:00,45.4,39.9,30.39,NNW,345,0.0,1.0,81,0.00,,,0.00,WeatherCatV1.15B25,2013-05-03 06:46:00,
2013-05-03 02:51:00,45.3,39.8,30.39,NNE,31,0.0,2.0,81,0.00,,,0.00,WeatherCatV1.15B25,2013-05-03 06:51:00,
2013-05-03 02:56:00,45.3,39.8,30.39,North,11,0.0,1.0,81,0.00,,,0.00,WeatherCatV1.15B25,2013-05-03 06:56:00,
2013-05-03 03:01:00,45.3,39.8,30.39,NE,52,0.0,2.0,81,0.00,,,0.00,WeatherCatV1.15B25,2013-05-03 07:01:00,
2013-05-03 03:06:00,45.2,39.7,30.39,NE,40,0.0,0.0,81,0.00,,,0.00,WeatherCatV1.15B25,2013-05-03 07:06:00,
2013-05-03 03:11:00,45.2,40.0,30.39,North,352,0.0,0.0,82,0.00,,,0.00,WeatherCatV1.15B25,2013-05-03 07:11:00,
2013-05-03 03:16:00,45.2,39.7,30.39,North,2,0.0,1.0,81,0.00,,,0.00,WeatherCatV1.15B25,2013-05-03 07:16:00,
2013-05-03 03:21:00,45.2,39.7,30.39,NNE,28,5.0,5.0,81,0.00,,,0.00,WeatherCatV1.15B25,2013-05-03 07:21:00,
2013-05-03 03:26:00,45.3,39.8,30.40,NE,38,1.0,4.0,81,0.00,,,0.00,WeatherCatV1.15B25,2013-05-03 07:26:00,
2013-05-03 03:31:00,45.2,39.7,30.39,NNW,344,2.0,3.0,81,0.00,,,0.00,WeatherCatV1.15B25,2013-05-03 07:31:00,
2013-05-03 03:36:00,45.3,39.8,30.40,NE,42,0.0,1.0,81,0.00,,,0.00,WeatherCatV1.15B25,2013-05-03 07:36:00,
2013-05-03 03:41:00,45.3,39.8,30.39,NE,36,0.0,1.0,81,0.00,,,0.00,WeatherCatV1.15B25,2013-05-03 07:41:00,
2013-05-03 03:46:00,45.3,39.8,30.39,NNE,22,4.0,4.0,81,0.00,,,0.00,WeatherCatV1.15B25,2013-05-03 07:46:00,
2013-05-03 03:51:00,45.3,39.8,30.40,NE,36,0.0,5.0,81,0.00,,,0.00,WeatherCatV1.15B25,2013-05-03 07:51:00,
2013-05-03 03:56:00,45.2,39.7,30.40,NNE,30,0.0,3.0,81,0.00,,,0.00,WeatherCatV1.15B25,2013-05-03 07:56:00,
2013-05-03 04:01:00,45.1,39.6,30.40,NE,39,0.0,2.0,81,0.00,,,0.00,WeatherCatV1.15B25,2013-05-03 08:01:00,
2013-05-03 04:06:00,45.1,39.6,30.40,North,2,0.0,0.0,81,0.00,,,0.00,WeatherCatV1.15B25,2013-05-03 08:06:00,
2013-05-03 04:11:00,45.0,39.8,30.40,ENE,59,1.0,1.0,82,0.00,,,0.00,WeatherCatV1.15B25,2013-05-03 08:11:00,
2013-05-03 04:16:00,44.9,39.7,30.40,NNE,20,4.0,4.0,82,0.00,,,0.00,WeatherCatV1.15B25,2013-05-03 08:16:00,
2013-05-03 04:21:00,44.9,39.7,30.40,NNE,27,0.0,2.0,82,0.00,,,0.00,WeatherCatV1.15B25,2013-05-03 08:21:00,
2013-05-03 04:26:00,44.9,39.7,30.40,NNE,21,0.0,4.0,82,0.00,,,0.00,WeatherCatV1.15B25,2013-05-03 08:26:00,
2013-05-03 04:31:00,44.8,39.6,30.41,NNE,21,0.0,1.0,82,0.00,,,0.00,WeatherCatV1.15B25,2013-05-03 08:31:00,
2013-05-03 04:36:00,44.7,39.5,30.41,NNE,22,0.0,1.0,82,0.00,,,0.00,WeatherCatV1.15B25,2013-05-03 08:36:00,
2013-05-03 04:41:00,44.7,39.9,30.41,NNE,16,3.0,3.0,83,0.00,,,0.00,WeatherCatV1.15B25,2013-05-03 08:41:00,
2013-05-03 04:46:00,44.6,39.8,30.41,NNE,32,1.0,4.0,83,0.00,,,0.00,WeatherCatV1.15B25,2013-05-03 08:46:00,
2013-05-03 04:51:00,44.5,39.7,30.41,North,11,0.0,2.0,83,0.00,,,0.00,WeatherCatV1.15B25,2013-05-03 08:51:00,
2013-05-03 04:56:00,44.3,39.5,30.41,NE,53,0.0,3.0,83,0.00,,,0.00,WeatherCatV1.15B25,2013-05-03 08:56:00,
2013-05-03 05:01:00,44.2,39.7,30.41,North,357,0.0,5.0,84,0.00,,,0.00,WeatherCatV1.15B25,2013-05-03 09:01:00,
2013-05-03 05:06:00,44.1,39.6,30.41,ENE,73,0.0,4.0,84,0.00,,,0.00,WeatherCatV1.15B25,2013-05-03 09:06:00,
2013-05-03 05:11:00,44.1,39.6,30.41,NNE,29,2.0,3.0,84,0.00,,,0.00,WeatherCatV1.15B25,2013-05-03 09:11:00,
2013-05-03 05:16:00,44.0,39.5,30.41,NNE,30,2.0,4.0,84,0.00,,,0.00,WeatherCatV1.15B25,2013-05-03 09:16:00,
2013-05-03 05:21:00,43.9,39.4,30.41,NE,45,2.0,2.0,84,0.00,,,0.00,WeatherCatV1.15B25,2013-05-03 09:21:00,
2013-05-03 05:26:00,43.8,39.3,30.42,WNW,292,1.0,3.0,84,0.00,,,0.00,WeatherCatV1.15B25,2013-05-03 09:26:00,
2013-05-03 05:31:00,43.8,39.6,30.42,North,357,0.0,0.0,85,0.00,,,0.00,WeatherCatV1.15B25,2013-05-03 09:31:00,
2013-05-03 05:36:00,43.7,39.5,30.42,NE,40,0.0,0.0,85,0.00,,,0.00,WeatherCatV1.15B25,2013-05-03 09:36:00,
2013-05-03 05:41:00,43.6,39.4,30.42,North,357,0.0,1.0,85,0.00,,,0.00,WeatherCatV1.15B25,2013-05-03 09:41:00,
2013-05-03 05:46:00,43.6,39.4,30.42,North,7,0.0,1.0,85,0.00,,,0.00,WeatherCatV1.15B25,2013-05-03 09:46:00,
2013-05-03 05:51:00,43.5,39.6,30.43,NNE,22,1.0,3.0,86,0.00,,,0.00,WeatherCatV1.15B25,2013-05-03 09:51:00,
2013-05-03 05:56:00,43.4,39.5,30.43,NNE,21,0.0,0.0,86,0.00,,,0.00,WeatherCatV1.15B25,2013-05-03 09:56:00,
2013-05-03 06:01:00,43.4,39.8,30.43,NNE,30,0.0,1.0,87,0.00,,,0.00,WeatherCatV1.15B25,2013-05-03 10:01:00,
2013-05-03 06:06:00,43.4,39.8,30.43,NNE,17,0.0,3.0,87,0.00,,,0.00,WeatherCatV1.15B25,2013-05-03 10:06:00,
2013-05-03 06:11:00,43.5,39.9,30.43,NNE,26,0.0,3.0,87,0.00,,,0.00,WeatherCatV1.15B25,2013-05-03 10:11:00,
2013-05-03 06:16:00,43.5,39.9,30.43,NNE,26,0.0,0.0,87,0.00,,,0.00,WeatherCatV1.15B25,2013-05-03 10:16:00,
2013-05-03 06:21:00,43.6,40.3,30.43,NNE,25,0.0,0.0,88,0.00,,,0.00,WeatherCatV1.15B25,2013-05-03 10:21:00,
2013-05-03 06:26:00,43.8,40.5,30.43,NNE,26,0.0,1.0,88,0.00,,,0.00,WeatherCatV1.15B25,2013-05-03 10:26:00,
2013-05-03 06:31:00,43.9,40.6,30.44,NNE,30,0.0,2.0,88,0.00,,,0.00,WeatherCatV1.15B25,2013-05-03 10:31:00,
2013-05-03 06:36:00,44.2,40.6,30.44,NNE,28,0.0,1.0,87,0.00,,,0.00,WeatherCatV1.15B25,2013-05-03 10:36:00,
2013-05-03 06:41:00,44.5,40.9,30.43,NE,36,2.0,4.0,87,0.00,,,0.00,WeatherCatV1.15B25,2013-05-03 10:41:00,
2013-05-03 06:46:00,44.9,41.0,30.44,West,267,0.0,2.0,86,0.00,,,0.00,WeatherCatV1.15B25,2013-05-03 10:46:00,
2013-05-03 06:51:00,45.2,41.3,30.44,NNE,14,1.0,5.0,86,0.00,,,0.00,WeatherCatV1.15B25,2013-05-03 10:51:00,
2013-05-03 06:56:00,45.7,41.5,30.44,NW,315,0.0,5.0,85,0.00,,,0.00,WeatherCatV1.15B25,2013-05-03 10:56:00,
2013-05-03 07:01:00,46.0,41.7,30.44,North,357,1.0,1.0,85,0.00,,,0.00,WeatherCatV1.15B25,2013-05-03 11:01:00,
2013-05-03 07:06:00,46.2,41.6,30.44,NE,41,0.0,0.0,84,0.00,,,0.00,WeatherCatV1.15B25,2013-05-03 11:06:00,
2013-05-03 07:11:00,46.5,41.6,30.44,NE,34,0.0,3.0,83,0.00,,,0.00,WeatherCatV1.15B25,2013-05-03 11:11:00,
2013-05-03 07:16:00,46.9,41.7,30.44,North,352,2.0,8.0,82,0.00,,,0.00,WeatherCatV1.15B25,2013-05-03 11:16:00,
2013-05-03 07:21:00,47.3,41.4,30.44,North,2,0.0,1.0,80,0.00,,,0.00,WeatherCatV1.15B25,2013-05-03 11:21:00,
2013-05-03 07:26:00,47.5,41.3,30.44,ENE,69,1.0,4.0,79,0.00,,,0.00,WeatherCatV1.15B25,2013-05-03 11:26:00,
2013-05-03 07:31:00,47.7,41.5,30.44,SE,141,4.0,11.0,79,0.00,,,0.00,WeatherCatV1.15B25,2013-05-03 11:31:00,
2013-05-03 07:36:00,47.7,41.5,30.45,North,2,1.0,5.0,79,0.00,,,0.00,WeatherCatV1.15B25,2013-05-03 11:36:00,
2013-05-03 07:41:00,47.6,41.4,30.45,NNW,335,5.0,6.0,79,0.00,,,0.00,WeatherCatV1.15B25,2013-05-03 11:41:00,
2013-05-03 07:46:00,47.5,41.6,30.45,NE,36,2.0,6.0,80,0.00,,,0.00,WeatherCatV1.15B25,2013-05-03 11:46:00,
2013-05-03 07:51:00,47.6,41.4,30.45,NNE,29,5.0,8.0,79,0.00,,,0.00,WeatherCatV1.15B25,2013-05-03 11:51:00,
2013-05-03 07:52:00,47.6,41.4,30.45,NE,37,4.0,8.0,79,0.00,,,0.00,WeatherCatV1.15B25,2013-05-03 11:52:00,
2013-05-03 07:57:00,47.4,41.2,30.45,ENE,57,3.0,6.0,79,0.00,,,0.00,WeatherCatV1.15B25,2013-05-03 11:57:00,
2013-05-03 08:02:00,47.2,41.0,30.46,North,7,1.0,13.0,79,0.00,,,0.00,WeatherCatV1.15B25,2013-05-03 12:02:00,
2013-05-03 08:07:00,47.2,41.3,30.46,NNE,17,2.0,4.0,80,0.00,,,0.00,WeatherCatV1.15B25,2013-05-03 12:07:00,
2013-05-03 08:12:00,47.3,41.1,30.45,NNE,22,3.0,10.0,79,0.00,,,0.00,WeatherCatV1.15B25,2013-05-03 12:12:00,
2013-05-03 08:17:00,47.3,41.1,30.46,NNE,16,5.0,10.0,79,0.00,,,0.00,WeatherCatV1.15B25,2013-05-03 12:17:00,
2013-05-03 08:22:00,47.4,41.2,30.46,NNE,21,4.0,8.0,79,0.00,,,0.00,WeatherCatV1.15B25,2013-05-03 12:22:00,
2013-05-03 08:27:00,47.3,40.8,30.46,SE,138,5.0,5.0,78,0.00,,,0.00,WeatherCatV1.15B25,2013-05-03 12:27:00,
2013-05-03 08:32:00,47.4,40.9,30.46,East,92,2.0,10.0,78,0.00,,,0.00,WeatherCatV1.15B25,2013-05-03 12:32:00,
2013-05-03 08:37:00,47.6,41.4,30.46,NNE,15,3.0,10.0,79,0.00,,,0.00,WeatherCatV1.15B25,2013-05-03 12:37:00,
2013-05-03 08:42:00,48.0,41.5,30.46,NNE,27,0.0,7.0,78,0.00,,,0.00,WeatherCatV1.15B25,2013-05-03 12:42:00,
2013-05-03 08:47:00,48.2,41.7,30.46,ENE,59,1.0,8.0,78,0.00,,,0.00,WeatherCatV1.15B25,2013-05-03 12:47:00,
2013-05-03 08:52:00,48.3,41.4,30.46,NE,43,3.0,7.0,77,0.00,,,0.00,WeatherCatV1.15B25,2013-05-03 12:52:00,
2013-05-03 08:57:00,48.3,41.4,30.46,NNE,17,5.0,6.0,77,0.00,,,0.00,WeatherCatV1.15B25,2013-05-03 12:57:00,
2013-05-03 09:02:00,48.1,40.9,30.46,NE,37,4.0,6.0,76,0.00,,,0.00,WeatherCatV1.15B25,2013-05-03 13:02:00,
2013-05-03 09:07:00,48.1,41.2,30.46,North,11,5.0,7.0,77,0.00,,,0.00,WeatherCatV1.15B25,2013-05-03 13:07:00,
2013-05-03 09:12:00,47.9,41.4,30.46,NNW,346,0.0,9.0,78,0.00,,,0.00,WeatherCatV1.15B25,2013-05-03 13:12:00,
2013-05-03 09:17:00,48.0,41.5,30.46,NNE,28,1.0,13.0,78,0.00,,,0.00,WeatherCatV1.15B25,2013-05-03 13:17:00,
2013-05-03 09:22:00,48.7,41.8,30.46,NNE,16,3.0,7.0,77,0.00,,,0.00,WeatherCatV1.15B25,2013-05-03 13:22:00,
2013-05-03 09:27:00,49.0,41.8,30.46,NNE,29,5.0,7.0,76,0.00,,,0.00,WeatherCatV1.15B25,2013-05-03 13:27:00,
2013-05-03 09:33:00,49.1,41.9,30.46,NNE,21,4.0,9.0,76,0.00,,,0.00,WeatherCatV1.15B25,2013-05-03 13:33:00,
2013-05-03 09:38:00,48.9,42.0,30.46,ENE,57,0.0,5.0,77,0.00,,,0.00,WeatherCatV1.15B25,2013-05-03 13:38:00,
2013-05-03 09:43:00,49.0,42.4,30.46,NNE,23,3.0,5.0,78,0.00,,,0.00,WeatherCatV1.15B25,2013-05-03 13:43:00,
2013-05-03 09:48:00,49.5,41.9,30.45,NNE,24,8.0,10.0,75,0.00,,,0.00,WeatherCatV1.15B25,2013-05-03 13:48:00,
2013-05-03 09:53:00,49.7,41.8,30.45,East,101,5.0,12.0,74,0.00,,,0.00,WeatherCatV1.15B25,2013-05-03 13:53:00,
2013-05-03 09:57:00,49.2,42.0,30.46,East,85,2.0,7.0,76,0.00,,,0.00,WeatherCatV1.15B25,2013-05-03 13:57:00,
2013-05-03 10:02:00,49.0,41.8,30.46,East,85,3.0,8.0,76,0.00,,,0.00,WeatherCatV1.15B25,2013-05-03 14:02:00,
2013-05-03 10:07:00,49.6,42.3,30.45,North,11,1.0,5.0,76,0.00,,,0.00,WeatherCatV1.15B25,2013-05-03 14:07:00,
2013-05-03 10:13:00,50.3,42.3,30.46,ENE,58,6.0,12.0,74,0.00,,,0.00,WeatherCatV1.15B25,2013-05-03 14:13:00,
2013-05-03 10:18:00,50.3,41.6,30.46,NE,34,4.0,8.0,72,0.00,,,0.00,WeatherCatV1.15B25,2013-05-03 14:18:00,
2013-05-03 10:23:00,50.3,42.0,30.45,ENE,65,9.0,9.0,73,0.00,,,0.00,WeatherCatV1.15B25,2013-05-03 14:23:00,
2013-05-03 10:28:00,50.5,42.2,30.46,NE,51,6.0,8.0,73,0.00,,,0.00,WeatherCatV1.15B25,2013-05-03 14:28:00,
2013-05-03 10:33:00,50.8,42.5,30.45,NNE,20,4.0,10.0,73,0.00,,,0.00,WeatherCatV1.15B25,2013-05-03 14:33:00,
2013-05-03 10:38:00,50.9,42.6,30.45,ENE,61,2.0,8.0,73,0.00,,,0.00,WeatherCatV1.15B25,2013-05-03 14:38:00,
2013-05-03 10:43:00,51.2,42.5,30.46,ENE,65,4.0,4.0,72,0.00,,,0.00,WeatherCatV1.15B25,2013-05-03 14:43:00,
2013-05-03 10:48:00,51.3,42.2,30.46,NE,37,7.0,8.0,71,0.00,,,0.00,WeatherCatV1.15B25,2013-05-03 14:48:00,
2013-05-03 10:53:00,51.4,42.3,30.46,ENE,69,2.0,9.0,71,0.00,,,0.00,WeatherCatV1.15B25,2013-05-03 14:53:00,
2013-05-03 10:58:00,51.3,42.9,30.46,ENE,57,1.0,4.0,73,0.00,,,0.00,WeatherCatV1.15B25,2013-05-03 14:58:00,
2013-05-03 11:03:00,51.4,42.7,30.46,South,180,2.0,10.0,72,0.00,,,0.00,WeatherCatV1.15B25,2013-05-03 15:03:00,
2013-05-03 11:08:00,50.9,42.2,30.46,East,88,2.0,7.0,72,0.00,,,0.00,WeatherCatV1.15B25,2013-05-03 15:08:00,
2013-05-03 11:13:00,50.2,42.2,30.46,North,2,3.0,12.0,74,0.00,,,0.00,WeatherCatV1.15B25,2013-05-03 15:13:00,
2013-05-03 11:18:00,50.0,42.0,30.46,NNE,14,5.0,8.0,74,0.00,,,0.00,WeatherCatV1.15B25,2013-05-03 15:18:00,
2013-05-03 11:23:00,50.2,42.2,30.46,North,357,10.0,11.0,74,0.00,,,0.00,WeatherCatV1.15B25,2013-05-03 15:23:00,
2013-05-03 11:28:00,49.8,42.2,30.45,NNE,13,4.0,4.0,75,0.00,,,0.00,WeatherCatV1.15B25,2013-05-03 15:28:00,
2013-05-03 11:33:00,50.2,42.2,30.45,NNE,25,0.0,10.0,74,0.00,,,0.00,WeatherCatV1.15B25,2013-05-03 15:33:00,
2013-05-03 11:38:00,50.7,43.1,30.45,NNE,18,3.0,8.0,75,0.00,,,0.00,WeatherCatV1.15B25,2013-05-03 15:38:00,
2013-05-03 11:43:00,51.1,42.8,30.45,NE,38,4.0,5.0,73,0.00,,,0.00,WeatherCatV1.15B25,2013-05-03 15:43:00,
2013-05-03 11:48:00,51.4,43.0,30.45,North,7,3.0,7.0,73,0.00,,,0.00,WeatherCatV1.15B25,2013-05-03 15:48:00,
2013-05-03 11:53:00,51.2,42.5,30.45,ENE,73,2.0,7.0,72,0.00,,,0.00,WeatherCatV1.15B25,2013-05-03 15:53:00,
2013-05-03 11:58:00,51.0,43.0,30.45,East,89,7.0,7.0,74,0.00,,,0.00,WeatherCatV1.15B25,2013-05-03 15:58:00,
2013-05-03 12:03:00,51.2,43.6,30.44,ESE,109,3.0,5.0,75,0.00,,,0.00,WeatherCatV1.15B25,2013-05-03 16:03:00,
2013-05-03 12:08:00,51.7,43.3,30.44,NE,35,5.0,7.0,73,0.00,,,0.00,WeatherCatV1.15B25,2013-05-03 16:08:00,
2013-05-03 12:13:00,52.1,43.4,30.44,SE,134,10.0,10.0,72,0.00,,,0.00,WeatherCatV1.15B25,2013-05-03 16:13:00,
2013-05-03 12:18:00,51.9,42.8,30.44,NNE,15,5.0,8.0,71,0.00,,,0.00,WeatherCatV1.15B25,2013-05-03 16:18:00,
2013-05-03 12:23:00,52.0,42.9,30.44,North,11,6.0,13.0,71,0.00,,,0.00,WeatherCatV1.15B25,2013-05-03 16:23:00,
2013-05-03 12:28:00,52.0,42.9,30.43,ESE,116,0.0,12.0,71,0.00,,,0.00,WeatherCatV1.15B25,2013-05-03 16:28:00,
2013-05-03 12:33:00,52.2,42.7,30.43,ESE,117,5.0,10.0,70,0.00,,,0.00,WeatherCatV1.15B25,2013-05-03 16:33:00,
2013-05-03 12:38:00,51.9,42.8,30.43,NNE,24,4.0,8.0,71,0.00,,,0.00,WeatherCatV1.15B25,2013-05-03 16:38:00,
2013-05-03 12:43:00,51.7,42.6,30.43,ENE,62,0.0,14.0,71,0.00,,,0.00,WeatherCatV1.15B25,2013-05-03 16:43:00,
2013-05-03 12:48:00,51.7,43.0,30.43,NE,48,2.0,6.0,72,0.00,,,0.00,WeatherCatV1.15B25,2013-05-03 16:48:00,
2013-05-03 12:53:00,51.9,42.8,30.43,North,357,2.0,8.0,71,0.00,,,0.00,WeatherCatV1.15B25,2013-05-03 16:53:00,
2013-05-03 12:58:00,52.2,43.1,30.42,ENE,59,0.0,8.0,71,0.00,,,0.00,WeatherCatV1.15B25,2013-05-03 16:58:00,
2013-05-03 13:03:00,52.2,42.7,30.42,East,93,3.0,10.0,70,0.00,,,0.00,WeatherCatV1.15B25,2013-05-03 17:03:00,
2013-05-03 13:08:00,52.7,43.6,30.42,ESE,108,2.0,6.0,71,0.00,,,0.00,WeatherCatV1.15B25,2013-05-03 17:08:00,
2013-05-03 13:13:00,52.6,43.1,30.42,NNE,24,1.0,11.0,70,0.00,,,0.00,WeatherCatV1.15B25,2013-05-03 17:13:00,
2013-05-03 13:18:00,52.7,43.9,30.42,North,357,5.0,9.0,72,0.00,,,0.00,WeatherCatV1.15B25,2013-05-03 17:18:00,
2013-05-03 13:23:00,52.5,43.4,30.42,NNE,28,5.0,7.0,71,0.00,,,0.00,WeatherCatV1.15B25,2013-05-03 17:23:00,
2013-05-03 13:28:00,52.1,43.7,30.42,ENE,75,3.0,6.0,73,0.00,,,0.00,WeatherCatV1.15B25,2013-05-03 17:28:00,
2013-05-03 13:33:00,52.1,43.7,30.42,North,7,3.0,4.0,73,0.00,,,0.00,WeatherCatV1.15B25,2013-05-03 17:33:00,
2013-05-03 13:38:00,52.5,43.0,30.42,NE,42,2.0,11.0,70,0.00,,,0.00,WeatherCatV1.15B25,2013-05-03 17:38:00,
2013-05-03 13:43:00,53.1,43.6,30.42,SSE,152,4.0,5.0,70,0.00,,,0.00,WeatherCatV1.15B25,2013-05-03 17:43:00,
2013-05-03 13:48:00,52.9,43.8,30.42,ENE,57,0.0,4.0,71,0.00,,,0.00,WeatherCatV1.15B25,2013-05-03 17:48:00,
2013-05-03 13:53:00,53.1,43.6,30.42,East,83,1.0,9.0,70,0.00,,,0.00,WeatherCatV1.15B25,2013-05-03 17:53:00,
2013-05-03 13:58:00,53.3,43.8,30.42,NE,44,1.0,6.0,70,0.00,,,0.00,WeatherCatV1.15B25,2013-05-03 17:58:00,
2013-05-03 14:03:00,53.8,43.9,30.41,East,85,3.0,9.0,69,0.00,,,0.00,WeatherCatV1.15B25,2013-05-03 18:03:00,
2013-05-03 14:08:00,53.3,43.8,30.41,NNE,13,4.0,7.0,70,0.00,,,0.00,WeatherCatV1.15B25,2013-05-03 18:08:00,
2013-05-03 14:13:00,53.1,43.9,30.41,East,93,3.0,7.0,71,0.00,,,0.00,WeatherCatV1.15B25,2013-05-03 18:13:00,
2013-05-03 14:18:00,52.9,43.8,30.41,ESE,121,2.0,5.0,71,0.00,,,0.00,WeatherCatV1.15B25,2013-05-03 18:18:00,
2013-05-03 14:23:00,53.0,44.2,30.41,SE,130,1.0,5.0,72,0.00,,,0.00,WeatherCatV1.15B25,2013-05-03 18:23:00,
2013-05-03 14:28:00,53.1,43.6,30.41,NE,35,1.0,6.0,70,0.00,,,0.00,WeatherCatV1.15B25,2013-05-03 18:28:00,
2013-05-03 14:33:00,53.0,43.9,30.41,East,80,4.0,6.0,71,0.00,,,0.00,WeatherCatV1.15B25,2013-05-03 18:33:00,
2013-05-03 14:38:00,52.7,43.6,30.41,East,98,3.0,5.0,71,0.00,,,0.00,WeatherCatV1.15B25,2013-05-03 18:38:00,
2013-05-03 14:43:00,52.4,43.3,30.40,NE,51,1.0,8.0,71,0.00,,,0.00,WeatherCatV1.15B25,2013-05-03 18:43:00,
2013-05-03 14:48:00,53.1,44.3,30.40,North,7,4.0,5.0,72,0.00,,,0.00,WeatherCatV1.15B25,2013-05-03 18:48:00,
2013-05-03 14:53:00,53.7,44.5,30.40,East,98,3.0,5.0,71,0.00,,,0.00,WeatherCatV1.15B25,2013-05-03 18:53:00,
2013-05-03 14:58:00,53.7,44.2,30.40,North,357,1.0,8.0,70,0.00,,,0.00,WeatherCatV1.15B25,2013-05-03 18:58:00,
2013-05-03 15:03:00,53.5,44.0,30.39,ENE,58,6.0,7.0,70,0.00,,,0.00,WeatherCatV1.15B25,2013-05-03 19:03:00,
2013-05-03 15:08:00,53.1,43.6,30.39,East,86,0.0,6.0,70,0.00,,,0.00,WeatherCatV1.15B25,2013-05-03 19:08:00,
2013-05-03 15:13:00,52.4,43.3,30.39,NNE,20,3.0,7.0,71,0.00,,,0.00,WeatherCatV1.15B25,2013-05-03 19:13:00,
2013-05-03 15:18:00,52.4,43.3,30.39,ENE,76,4.0,7.0,71,0.00,,,0.00,WeatherCatV1.15B25,2013-05-03 19:18:00,
2013-05-03 15:23:00,52.5,44.1,30.39,North,7,0.0,2.0,73,0.00,,,0.00,WeatherCatV1.15B25,2013-05-03 19:23:00,
2013-05-03 15:28:00,53.3,43.8,30.38,East,93,1.0,4.0,70,0.00,,,0.00,WeatherCatV1.15B25,2013-05-03 19:28:00,
2013-05-03 15:33:00,53.6,44.1,30.38,East,100,0.0,5.0,70,0.00,,,0.00,WeatherCatV1.15B25,2013-05-03 19:33:00,
2013-05-03 15:38:00,53.4,43.5,30.38,East,88,1.0,6.0,69,0.00,,,0.00,WeatherCatV1.15B25,2013-05-03 19:38:00,
2013-05-03 15:43:00,52.6,43.5,30.38,NNE,17,4.0,8.0,71,0.00,,,0.00,WeatherCatV1.15B25,2013-05-03 19:43:00,
2013-05-03 15:48:00,52.4,43.3,30.38,North,357,4.0,5.0,71,0.00,,,0.00,WeatherCatV1.15B25,2013-05-03 19:48:00,
2013-05-03 15:53:00,53.0,43.1,30.38,North,2,4.0,8.0,69,0.00,,,0.00,WeatherCatV1.15B25,2013-05-03 19:53:00,
2013-05-03 15:58:00,53.0,43.5,30.38,ENE,72,0.0,5.0,70,0.00,,,0.00,WeatherCatV1.15B25,2013-05-03 19:58:00,
2013-05-03 16:03:00,53.7,43.4,30.38,NNE,28,4.0,5.0,68,0.00,,,0.00,WeatherCatV1.15B25,2013-05-03 20:03:00,
2013-05-03 16:08:00,53.8,44.2,30.37,ESE,110,1.0,4.0,70,0.00,,,0.00,WeatherCatV1.15B25,2013-05-03 20:08:00,
2013-05-03 16:13:00,54.0,43.7,30.37,SE,141,2.0,3.0,68,0.00,,,0.00,WeatherCatV1.15B25,2013-05-03 20:13:00,
2013-05-03 16:18:00,53.4,43.5,30.37,NNE,16,4.0,7.0,69,0.00,,,0.00,WeatherCatV1.15B25,2013-05-03 20:18:00,
2013-05-03 16:23:00,54.2,44.3,30.37,NNE,21,2.0,5.0,69,0.00,,,0.00,WeatherCatV1.15B25,2013-05-03 20:23:00,
2013-05-03 16:28:00,55.7,44.1,30.37,NNE,12,1.0,5.0,65,0.00,,,0.00,WeatherCatV1.15B25,2013-05-03 20:28:00,
2013-05-03 16:33:00,55.8,44.6,30.37,NNE,15,2.0,3.0,66,0.00,,,0.00,WeatherCatV1.15B25,2013-05-03 20:33:00,
2013-05-03 16:38:00,55.2,44.0,30.37,ENE,66,1.0,4.0,66,0.00,,,0.00,WeatherCatV1.15B25,2013-05-03 20:38:00,
2013-05-03 16:43:00,54.6,44.3,30.37,NNE,27,2.0,5.0,68,0.00,,,0.00,WeatherCatV1.15B25,2013-05-03 20:43:00,
2013-05-03 16:48:00,54.6,44.3,30.37,NE,51,0.0,4.0,68,0.00,,,0.00,WeatherCatV1.15B25,2013-05-03 20:48:00,
2013-05-03 16:53:00,54.5,44.2,30.37,ENE,73,1.0,6.0,68,0.00,,,0.00,WeatherCatV1.15B25,2013-05-03 20:53:00,
2013-05-03 16:58:00,54.0,43.7,30.37,ESE,111,2.0,7.0,68,0.00,,,0.00,WeatherCatV1.15B25,2013-05-03 20:58:00,
2013-05-03 17:03:00,53.5,43.6,30.37,ESE,119,4.0,7.0,69,0.00,,,0.00,WeatherCatV1.15B25,2013-05-03 21:03:00,
2013-05-03 17:08:00,53.5,44.0,30.37,East,98,2.0,6.0,70,0.00,,,0.00,WeatherCatV1.15B25,2013-05-03 21:08:00,
2013-05-03 17:13:00,53.6,44.1,30.36,ESE,103,3.0,5.0,70,0.00,,,0.00,WeatherCatV1.15B25,2013-05-03 21:13:00,
2013-05-03 17:18:00,53.3,43.8,30.36,NNE,18,5.0,5.0,70,0.00,,,0.00,WeatherCatV1.15B25,2013-05-03 21:18:00,
2013-05-03 17:23:00,53.3,43.4,30.36,NNE,25,2.0,6.0,69,0.00,,,0.00,WeatherCatV1.15B25,2013-05-03 21:23:00,
2013-05-03 17:28:00,53.1,42.4,30.36,North,11,5.0,9.0,67,0.00,,,0.00,WeatherCatV1.15B25,2013-05-03 21:28:00,
2013-05-03 17:33:00,53.1,42.0,30.36,NNE,16,7.0,8.0,66,0.00,,,0.00,WeatherCatV1.15B25,2013-05-03 21:33:00,
2013-05-03 17:38:00,53.0,41.9,30.36,NNE,21,6.0,6.0,66,0.00,,,0.00,WeatherCatV1.15B25,2013-05-03 21:38:00,
2013-05-03 17:43:00,52.8,41.8,30.36,ENE,59,2.0,5.0,66,0.00,,,0.00,WeatherCatV1.15B25,2013-05-03 21:43:00,
2013-05-03 17:48:00,52.5,41.9,30.36,East,98,2.0,4.0,67,0.00,,,0.00,WeatherCatV1.15B25,2013-05-03 21:48:00,
2013-05-03 17:53:00,52.2,42.0,30.36,NNE,19,3.0,5.0,68,0.00,,,0.00,WeatherCatV1.15B25,2013-05-03 21:53:00,
2013-05-03 17:58:00,52.0,42.1,30.36,ENE,62,4.0,7.0,69,0.00,,,0.00,WeatherCatV1.15B25,2013-05-03 21:58:00,
2013-05-03 18:03:00,51.7,42.2,30.36,ESE,103,1.0,7.0,70,0.00,,,0.00,WeatherCatV1.15B25,2013-05-03 22:03:00,
2013-05-03 18:08:00,50.9,41.8,30.36,ENE,62,0.0,5.0,71,0.00,,,0.00,WeatherCatV1.15B25,2013-05-03 22:08:00,
2013-05-03 18:13:00,50.6,41.5,30.36,North,357,1.0,7.0,71,0.00,,,0.00,WeatherCatV1.15B25,2013-05-03 22:13:00,
2013-05-03 18:18:00,50.1,41.8,30.36,NNE,17,0.0,5.0,73,0.00,,,0.00,WeatherCatV1.15B25,2013-05-03 22:18:00,
2013-05-03 18:23:00,49.9,41.6,30.36,NNE,15,0.0,3.0,73,0.00,,,0.00,WeatherCatV1.15B25,2013-05-03 22:23:00,
2013-05-03 18:28:00,49.4,41.8,30.36,North,357,4.0,6.0,75,0.00,,,0.00,WeatherCatV1.15B25,2013-05-03 22:28:00,
2013-05-03 18:33:00,49.0,41.8,30.36,North,7,2.0,7.0,76,0.00,,,0.00,WeatherCatV1.15B25,2013-05-03 22:33:00,
2013-05-03 18:38:00,48.7,41.5,30.36,NNE,29,0.0,6.0,76,0.00,,,0.00,WeatherCatV1.15B25,2013-05-03 22:38:00,
2013-05-03 18:43:00,48.4,41.5,30.36,ENE,70,1.0,2.0,77,0.00,,,0.00,WeatherCatV1.15B25,2013-05-03 22:43:00,
2013-05-03 18:48:00,48.3,41.8,30.36,NNE,28,1.0,2.0,78,0.00,,,0.00,WeatherCatV1.15B25,2013-05-03 22:48:00,
2013-05-03 18:53:00,48.3,41.8,30.36,East,80,2.0,6.0,78,0.00,,,0.00,WeatherCatV1.15B25,2013-05-03 22:53:00,
2013-05-03 18:58:00,48.1,41.2,30.36,North,7,5.0,5.0,77,0.00,,,0.00,WeatherCatV1.15B25,2013-05-03 22:58:00,
2013-05-03 19:03:00,48.0,41.1,30.36,East,96,2.0,7.0,77,0.00,,,0.00,WeatherCatV1.15B25,2013-05-03 23:03:00,
2013-05-03 19:08:00,47.9,41.0,30.36,NNE,27,3.0,3.0,77,0.00,,,0.00,WeatherCatV1.15B25,2013-05-03 23:08:00,
2013-05-03 19:13:00,47.8,41.3,30.36,NNE,15,0.0,5.0,78,0.00,,,0.00,WeatherCatV1.15B25,2013-05-03 23:13:00,
2013-05-03 19:18:00,47.8,40.9,30.36,ENE,74,0.0,3.0,77,0.00,,,0.00,WeatherCatV1.15B25,2013-05-03 23:18:00,
2013-05-03 19:23:00,47.7,40.8,30.35,NE,34,1.0,1.0,77,0.00,,,0.00,WeatherCatV1.15B25,2013-05-03 23:23:00,
2013-05-03 19:28:00,47.7,40.8,30.35,NNE,15,1.0,2.0,77,0.00,,,0.00,WeatherCatV1.15B25,2013-05-03 23:28:00,
2013-05-03 19:33:00,47.7,41.2,30.35,NNE,26,0.0,0.0,78,0.00,,,0.00,WeatherCatV1.15B25,2013-05-03 23:33:00,
2013-05-03 19:38:00,47.7,41.2,30.35,NNE,26,0.0,0.0,78,0.00,,,0.00,WeatherCatV1.15B25,2013-05-03 23:38:00,
2013-05-03 19:43:00,47.7,41.5,30.35,NNE,26,0.0,0.0,79,0.00,,,0.00,WeatherCatV1.15B25,2013-05-03 23:43:00,
2013-05-03 19:48:00,47.6,41.7,30.35,NNE,26,0.0,0.0,80,0.00,,,0.00,WeatherCatV1.15B25,2013-05-03 23:48:00,
2013-05-03 19:53:00,47.4,41.5,30.35,NNE,26,0.0,0.0,80,0.00,,,0.00,WeatherCatV1.15B25,2013-05-03 23:53:00,
2013-05-03 19:58:00,47.3,41.8,30.35,NNE,26,0.0,0.0,81,0.00,,,0.00,WeatherCatV1.15B25,2013-05-03 23:58:00,
2013-05-03 20:03:00,47.2,41.3,30.35,NNE,26,0.0,0.0,80,0.00,,,0.00,WeatherCatV1.15B25,2013-05-04 00:03:00,
2013-05-03 20:08:00,47.1,41.6,30.35,NNE,26,0.0,0.0,81,0.00,,,0.00,WeatherCatV1.15B25,2013-05-04 00:08:00,
2013-05-03 20:13:00,46.9,41.4,30.35,NNE,26,0.0,0.0,81,0.00,,,0.00,WeatherCatV1.15B25,2013-05-04 00:13:00,
2013-05-03 20:18:00,46.8,41.3,30.35,NNE,26,0.0,0.0,81,0.00,,,0.00,WeatherCatV1.15B25,2013-05-04 00:18:00,
2013-05-03 20:23:00,46.7,41.2,30.35,NNE,26,0.0,0.0,81,0.00,,,0.00,WeatherCatV1.15B25,2013-05-04 00:23:00,
2013-05-03 20:28:00,46.6,41.4,30.35,NNE,26,0.0,0.0,82,0.00,,,0.00,WeatherCatV1.15B25,2013-05-04 00:28:00,
2013-05-03 20:33:00,46.5,41.3,30.35,NNE,26,0.0,0.0,82,0.00,,,0.00,WeatherCatV1.15B25,2013-05-04 00:33:00,
2013-05-03 20:38:00,46.5,41.3,30.35,NNE,26,0.0,0.0,82,0.00,,,0.00,WeatherCatV1.15B25,2013-05-04 00:38:00,
2013-05-03 20:43:00,46.3,41.1,30.35,NNE,26,0.0,0.0,82,0.00,,,0.00,WeatherCatV1.15B25,2013-05-04 00:43:00,
2013-05-03 20:48:00,46.2,41.0,30.36,NNE,26,0.0,0.0,82,0.00,,,0.00,WeatherCatV1.15B25,2013-05-04 00:48:00,
2013-05-03 20:53:00,46.0,41.1,30.36,NNE,26,0.0,0.0,83,0.00,,,0.00,WeatherCatV1.15B25,2013-05-04 00:53:00,
2013-05-03 20:58:00,45.8,40.9,30.36,NNE,26,0.0,0.0,83,0.00,,,0.00,WeatherCatV1.15B25,2013-05-04 00:58:00,
2013-05-03 21:03:00,45.6,41.0,30.36,NNE,26,0.0,0.0,84,0.00,,,0.00,WeatherCatV1.15B25,2013-05-04 01:03:00,
2013-05-03 21:08:00,45.4,40.9,30.36,NNE,26,0.0,0.0,84,0.00,,,0.00,WeatherCatV1.15B25,2013-05-04 01:08:00,
2013-05-03 21:13:00,45.3,41.1,30.35,NNE,26,0.0,0.0,85,0.00,,,0.00,WeatherCatV1.15B25,2013-05-04 01:13:00,
2013-05-03 21:18:00,45.2,41.0,30.35,NNE,26,0.0,0.0,85,0.00,,,0.00,WeatherCatV1.15B25,2013-05-04 01:18:00,
2013-05-03 21:23:00,45.1,40.9,30.36,NNE,26,0.0,0.0,85,0.00,,,0.00,WeatherCatV1.15B25,2013-05-04 01:23:00,
2013-05-03 21:28:00,45.0,41.1,30.35,NNE,26,0.0,0.0,86,0.00,,,0.00,WeatherCatV1.15B25,2013-05-04 01:28:00,
2013-05-03 21:33:00,44.9,41.0,30.35,NNE,26,0.0,0.0,86,0.00,,,0.00,WeatherCatV1.15B25,2013-05-04 01:33:00,
2013-05-03 21:38:00,44.7,41.1,30.35,NNE,26,0.0,0.0,87,0.00,,,0.00,WeatherCatV1.15B25,2013-05-04 01:38:00,
2013-05-03 21:43:00,44.6,40.7,30.35,NNE,26,0.0,0.0,86,0.00,,,0.00,WeatherCatV1.15B25,2013-05-04 01:43:00,
2013-05-03 21:48:00,44.5,40.9,30.35,NNE,26,0.0,0.0,87,0.00,,,0.00,WeatherCatV1.15B25,2013-05-04 01:48:00,
2013-05-03 21:53:00,44.3,40.7,30.35,NNE,26,0.0,0.0,87,0.00,,,0.00,WeatherCatV1.15B25,2013-05-04 01:53:00,
2013-05-03 21:58:00,44.2,40.6,30.35,NNE,26,0.0,0.0,87,0.00,,,0.00,WeatherCatV1.15B25,2013-05-04 01:58:00,
2013-05-03 22:03:00,44.0,40.7,30.35,NNE,26,0.0,0.0,88,0.00,,,0.00,WeatherCatV1.15B25,2013-05-04 02:03:00,
2013-05-03 22:08:00,43.9,40.6,30.35,NNE,26,0.0,0.0,88,0.00,,,0.00,WeatherCatV1.15B25,2013-05-04 02:08:00,
2013-05-03 22:13:00,43.8,40.8,30.35,NNE,26,0.0,0.0,89,0.00,,,0.00,WeatherCatV1.15B25,2013-05-04 02:13:00,
2013-05-03 22:18:00,43.7,40.7,30.35,NNE,26,0.0,0.0,89,0.00,,,0.00,WeatherCatV1.15B25,2013-05-04 02:18:00,
2013-05-03 22:23:00,43.5,40.5,30.34,NNE,26,0.0,0.0,89,0.00,,,0.00,WeatherCatV1.15B25,2013-05-04 02:23:00,
2013-05-03 22:28:00,43.4,40.4,30.34,NNE,26,0.0,0.0,89,0.00,,,0.00,WeatherCatV1.15B25,2013-05-04 02:28:00,
2013-05-03 22:33:00,43.3,40.6,30.34,NNE,26,0.0,0.0,90,0.00,,,0.00,WeatherCatV1.15B25,2013-05-04 02:33:00,
2013-05-03 22:38:00,43.2,40.5,30.34,NNE,26,0.0,0.0,90,0.00,,,0.00,WeatherCatV1.15B25,2013-05-04 02:38:00,
2013-05-03 22:43:00,43.1,40.4,30.34,NNE,26,0.0,0.0,90,0.00,,,0.00,WeatherCatV1.15B25,2013-05-04 02:43:00,
2013-05-03 22:48:00,42.9,40.2,30.33,NNE,26,0.0,0.0,90,0.00,,,0.00,WeatherCatV1.15B25,2013-05-04 02:48:00,
2013-05-03 22:53:00,42.8,40.1,30.33,NNE,26,0.0,0.0,90,0.00,,,0.00,WeatherCatV1.15B25,2013-05-04 02:53:00,
2013-05-03 22:58:00,42.7,40.0,30.33,NNE,26,0.0,0.0,90,0.00,,,0.00,WeatherCatV1.15B25,2013-05-04 02:58:00,
2013-05-03 23:03:00,42.5,39.8,30.33,NNE,26,0.0,0.0,90,0.00,,,0.00,WeatherCatV1.15B25,2013-05-04 03:03:00,
2013-05-03 23:08:00,42.4,39.7,30.33,NNE,26,0.0,0.0,90,0.00,,,0.00,WeatherCatV1.15B25,2013-05-04 03:08:00,
2013-05-03 23:13:00,42.3,39.6,30.33,NNE,26,0.0,0.0,90,0.00,,,0.00,WeatherCatV1.15B25,2013-05-04 03:13:00,
2013-05-03 23:18:00,42.1,39.4,30.33,NNE,26,0.0,0.0,90,0.00,,,0.00,WeatherCatV1.15B25,2013-05-04 03:18:00,
2013-05-03 23:23:00,42.0,39.3,30.32,NNE,26,0.0,0.0,90,0.00,,,0.00,WeatherCatV1.15B25,2013-05-04 03:23:00,
2013-05-03 23:28:00,41.9,39.2,30.32,NNE,26,0.0,0.0,90,0.00,,,0.00,WeatherCatV1.15B25,2013-05-04 03:28:00,
2013-05-03 23:33:00,41.8,39.1,30.32,NNE,26,0.0,0.0,90,0.00,,,0.00,WeatherCatV1.15B25,2013-05-04 03:33:00,
2013-05-03 23:38:00,41.7,39.3,30.32,NNE,26,0.0,0.0,91,0.00,,,0.00,WeatherCatV1.15B25,2013-05-04 03:38:00,
2013-05-03 23:43:00,41.6,39.2,30.32,NNE,26,0.0,0.0,91,0.00,,,0.00,WeatherCatV1.15B25,2013-05-04 03:43:00,
2013-05-03 23:48:00,41.4,39.0,30.32,NNE,26,0.0,0.0,91,0.00,,,0.00,WeatherCatV1.15B25,2013-05-04 03:48:00,
2013-05-03 23:53:00,41.3,38.9,30.32,NNE,26,0.0,0.0,91,0.00,,,0.00,WeatherCatV1.15B25,2013-05-04 03:53:00,
2013-05-03 23:58:00,41.2,38.8,30.32,NNE,26,0.0,0.0,91,0.00,,,0.00,WeatherCatV1.15B25,2013-05-04 03:58:00,